Location: Linz
(48.3300°N, 14.3000°E)
Time: 19:36:24
(UTC+01:00)

Tiangong 2 - Visible Passes

Search period start: 20 January 2018 00:00
Search period end: 30 January 2018 00:00
Orbit: 384 x 390 km, 42.8° (Epoch: 20 January)

Date Brightness Start Highest point End Pass type
(mag) Time Alt. Az. Time Alt. Az. Time Alt. Az.
20 Jan 3.3 06:15:53 10° SW 06:18:26 22° SSE 06:21:00 10° ESE visible
21 Jan 3.6 05:20:02 17° SSE 05:20:02 17° SSE 05:22:06 10° ESE visible
21 Jan 2.8 06:53:21 10° WSW 06:56:12 29° S 06:59:02 10° ESE visible
22 Jan 2.8 05:56:28 21° SSW 05:57:37 27° S 06:00:23 10° ESE visible
23 Jan 3.9 05:00:32 16° SE 05:00:32 16° SE 05:01:38 10° ESE visible
23 Jan 2.6 06:32:49 12° WSW 06:35:23 29° S 06:38:14 10° ESE visible
24 Jan 2.5 05:36:50 29° S 05:36:50 29° S 05:39:38 10° ESE visible
25 Jan 4.6 04:40:49 11° ESE 04:40:49 11° ESE 04:40:58 10° ESE visible
25 Jan 2.7 06:13:05 19° SW 06:14:34 27° S 06:17:19 10° SE visible
26 Jan 3.2 05:17:03 23° SSE 05:17:03 23° SSE 05:18:47 10° ESE visible
26 Jan 3.3 06:50:02 10° WSW 06:52:13 17° SSW 06:54:25 10° SSE visible
27 Jan 2.8 05:53:17 21° SSW 05:53:40 22° SSW 05:56:13 10° SE visible
28 Jan 4.1 04:57:17 13° SE 04:57:17 13° SE 04:57:49 10° SE visible
28 Jan 3.6 06:29:55 10° SW 06:31:14 12° SSW 06:32:34 10° S visible
29 Jan 3.5 05:33:34 15° S 05:33:34 15° S 05:34:51 10° SSE visible
